Flag for U.S.A. Weather past 2 weeks in Vallejo, California, U.S.A.

Now
84 °F

Sunny.


Feels Like: 83 °F
Forecast: 57 / 78 °F
Wind: 12 mph from Southwest

Location: Napa County Airport

Current Time: Aug 27, 2014 at 5:08:40 PM

Latest Report: Aug 27, 2014 at 3:54 PM


Visibility: 10 mi

Pressure: 29.95 "Hg

Humidity: 41%

Dew point: 58 °F

Location of VallejoLocation

Historic Weather in Vallejo — Graph

°F

Vallejo temperature yesterday

Maximum temperature yesterday: 81 °F (at 4:54 PM)
Minimum temperature yesterday: 58 °F (at 2:54 AM)
Average temperature yesterday: 66 °F

Past Weeks' High & Low Weather Summary

 TemperatureHumidityPressure
High86 °F (Aug 27, 2:54 PM)100% (Aug 14, 12:54 AM)30.04 "Hg (Aug 14, 12:54 AM)
Low47 °F (Aug 16, 5:56 AM)35% (Aug 27, 2:54 PM)29.76 "Hg (Aug 18, 5:54 PM)
Average64 °F78%29.89 "Hg
* Reported Aug 12 3:54 PM — Aug 27 3:54 PM, Vallejo, Weather by CustomWeather, © 2014

Note: Actual official high and low records may vary slightly from our data, if they occured in-between our weather recording intervals... More about our weather records

Advertising

Vallejo weather history for previous 24 hours

 ConditionsComfort  
Time TempWeatherWind HumidityBarometerVisibility
3:54 PM
Aug 27
84 °FSunny.12 mph41%29.95 "Hg10 mi
2:54 PM86 °FSunny.9 mph35%29.96 "Hg10 mi
1:54 PM82 °FSunny.9 mph44%29.98 "Hg10 mi
12:54 PM79 °FSunny.6 mph50%30.00 "Hg10 mi
11:54 AM74 °FSunny.6 mph57%30.02 "Hg10 mi
10:54 AM71 °FSunny.7 mph63%30.04 "Hg10 mi
9:54 AM67 °FSunny.6 mph73%30.04 "Hg10 mi
8:54 AM63 °FSunny.5 mph81%30.03 "Hg10 mi
7:54 AM58 °FSunny.No wind93%30.03 "Hg10 mi
6:54 AM54 °FClear.No wind100%30.01 "Hg8 mi
5:54 AM54 °FClear.5 mph100%30.00 "Hg10 mi
4:54 AM56 °FClear.3 mph100%29.98 "Hg10 mi
3:54 AM58 °FClear.6 mph97%29.98 "Hg10 mi
2:54 AM58 °FClear.6 mph93%29.97 "Hg10 mi
1:54 AM60 °FClear.9 mph90%29.96 "Hg10 mi
12:54 AM59 °FClear.3 mph87%29.96 "Hg10 mi
11:54 PM
Aug 26
61 °FClear.7 mph83%29.96 "Hg10 mi
10:54 PM61 °FClear.6 mph83%29.96 "Hg10 mi
9:54 PM61 °FClear.9 mph83%29.94 "Hg10 mi
8:54 PM64 °FClear.No wind70%29.93 "Hg10 mi
7:54 PM67 °FSunny.9 mph66%29.91 "Hg10 mi
6:54 PM73 °FSunny.13 mph53%29.89 "Hg10 mi
5:54 PM78 °FSunny.14 mph45%29.88 "Hg10 mi
Weather by CustomWeather, © 2014

See weather overviewHow to use our weather pages